Location: Fort Worth, Tx
(32.7431°N, 97.3695°W)
Time: 10:19:06
(UTC-04:00)

Courier 1B - Pass Details

Date: 28 February 2024
Orbit: 962 x 1208 km, 28.3° (Epoch: 24 April)

Event Time Altitude Azimuth Distance (km) Brightness Sun altitude
Exits shadow 05:42:07 23° 176° (S) 1,946 9.0 -29.5°
Drops below altitude 10° 05:45:41 10° 148° (SSE) 2,779 10.1 -28.7°
Sets 05:48:51 0° 136° (SE) 3,768 11.0 -28.1°
